Morelia, Mexico

2:16 PM CST on November 20, 2017 (GMT -0600)
Gen Francisco J Mujica International

Weather History for MMMM - December, 2013

Change the Weather History Date:

Wednesday, December 4, 2013

  Actual Average Record
Temperature  
Mean Temperature 67 °F -  
Max Temperature 83 °F 72 °F 83 °F (2013)
Min Temperature 51 °F 45 °F 32 °F (2010)
Cooling Degree Days 2    
Growing Degree Days 17 (Base 50)    
Moisture  
Dew Point 51 °F    
Average Humidity 76    
Maximum Humidity 100    
Minimum Humidity 33    
Precipitation  
Precipitation 0.00 in 0.02 in - ()
Sea Level Pressure  
Sea Level Pressure 30.02 in    
Wind  
Wind Speed 3 mph ()    
Max Wind Speed 12 mph    
Max Gust Speed -    
Visibility 5.8 miles    
Events      
Averages and records for this station are not official NWS values.
T = Trace of Precipitation, MM = Missing Value Source: Averaged Metar Reports

Daily Weather History Graph

Daily Weather History Graph

Search for Another Location

Airport or City:

Trip Planner

Search our weather history database for the weather conditions in past years. The results will help you decide how hot, cold, wet, or windy it might be!

Date:

Astronomy

Dec. 04, 2013 Rise Set
Actual Time 7:04 AM CST 6:04 PM CST
Civil Twilight 6:40 AM CST 6:28 PM CST
Nautical Twilight 6:13 AM CST 6:55 PM CST
Astronomical Twilight 5:46 AM CST 7:22 PM CST
Moon 8:39 AM CST (12/4) 8:10 PM CST (12/4)
Length of Visible Light 11h 47m
Length of Day
10h 59m
Waxing Crescent, 4% of the Moon is Illuminated
Dec 4
Waxing Crescent
Dec 9
First Quarter
Dec 17
Full
Dec 25
Last Quarter
Jan 1
New

Hourly Weather History & Observations

Time (CST) Temp. Dew Point Humidity Pressure Visibility Wind Dir Wind Speed Gust Speed Precip Events Conditions
12:43 AM 55.4 °F 53.6 °F 94% 30.18 in 6.0 mi SW 8.1 mph - N/A   Clear
1:43 AM 55.4 °F 53.6 °F 94% 30.18 in 6.0 mi WSW 3.5 mph - N/A   Clear
2:45 AM 54 °F 51 °F 86% 29.84 in 5 mi SSW 2.2 mph - -  
2:50 AM 53.6 °F 51.8 °F 94% 29.75 in 6.0 mi WSW 5.8 mph - N/A   Clear
4:16 AM 46.4 °F 44.6 °F 93% 30.18 in 6.0 mi Calm Calm - N/A   Scattered Clouds
4:42 AM 44.6 °F 42.8 °F 93% 30.18 in 6.0 mi Calm Calm - N/A   Scattered Clouds
5:42 AM 42.8 °F 42.8 °F 100% 29.91 in 6.0 mi Calm Calm - N/A   Partly Cloudy
5:45 AM 52 °F 50 °F 91% 29.93 in 5 mi SW 2.2 mph - -  
6:44 AM 42.8 °F 42.8 °F 100% 30.20 in 5.0 mi Calm Calm - N/A   Partly Cloudy
6:55 AM 42.8 °F 42.8 °F 100% 30.21 in 3.0 mi Calm Calm - N/A   Scattered Clouds
7:45 AM 42.8 °F 42.8 °F 100% 30.23 in 2.0 mi Calm Calm - N/A   Scattered Clouds
8:44 AM 55.4 °F 51.8 °F 88% 29.96 in 3.0 mi Calm Calm - N/A   Haze
8:50 AM 54 °F 51 °F 86% 30.00 in 7 mi South 2.2 mph - -  
9:48 AM 62.6 °F 50.0 °F 63% 30.26 in 4.0 mi Calm Calm - N/A   Scattered Clouds
11:44 AM 69.8 °F 51.8 °F 53% 29.83 in 6.0 mi Variable 3.5 mph - N/A   Clear
11:50 AM 74 °F 56 °F 44% 29.94 in 7 mi East 2.2 mph - -  
12:43 PM 75.2 °F 50.0 °F 41% 30.19 in 7.0 mi West 4.6 mph - N/A   Clear
1:43 PM 77.0 °F 48.2 °F 36% 30.14 in 6.0 mi WSW 4.6 mph - N/A   Clear
2:45 PM 78.8 °F 48.2 °F 34% 29.74 in 7.0 mi SW 5.8 mph - N/A   Clear
2:55 PM 82 °F 58 °F 33% 29.82 in 7 mi SSE 2.2 mph - -  
3:45 PM 77.0 °F 46.4 °F 34% 30.10 in 7.0 mi NNW 5.8 mph - N/A   Partly Cloudy
4:47 PM 75.2 °F 55.4 °F 50% 30.11 in 7.0 mi SW 6.9 mph - N/A   Clear
5:45 PM 68 °F 63 °F 78% 29.76 in 7 mi SSE 2.2 mph - -   Partly Cloudy
5:45 PM 68.0 °F 55.4 °F 64% 29.83 in 7.0 mi South 9.2 mph - N/A   Clear
6:46 PM 64.4 °F 55.4 °F 73% 30.15 in 7.0 mi South 11.5 mph - N/A   Partly Cloudy
7:45 PM 62.6 °F 55.4 °F 77% 30.18 in 7.0 mi SW 9.2 mph - N/A   Partly Cloudy
8:45 PM 59.0 °F 55.4 °F 88% 29.90 in 7.0 mi SW 6.9 mph - N/A   Scattered Clouds
8:50 PM 61 °F 56 °F 77% 29.77 in 5 mi Calm Calm - -  
9:44 PM 57.2 °F 53.6 °F 88% 30.23 in 6.0 mi SW 5.8 mph - N/A   Partly Cloudy
10:45 PM 55.4 °F 53.6 °F 94% 30.24 in 6.0 mi WSW 5.8 mph - N/A   Clear
11:42 PM 53.6 °F 51.8 °F 94% 29.87 in 6.0 mi Calm Calm - N/A   Clear
11:50 PM 56 °F 53 °F 87% 29.84 in 5 mi SSW 2.2 mph - -